User: anonymous   Login
Location: ???????
(55.3754°N, 39.3545°E)
Time: 02:12:42
(UTC+00:00)
Language:

Cosmos 1140 Rocket - Orbit

View from above orbital plane
View from above orbital plane
View from above satellite
View from above satellite

Ground track
Ground track

The orbit is defined by the following mean orbital elements,

1 11574U          26158.70307404 +.00000000 +00000-0 +94260-4 0 00003
2 11574  74.0695 284.4137 0014843  72.0471 288.2302 14.42399928    07
Epoch (UTC): 07 June 2026 16:52:25
Eccentricity: 0.0014843
inclination: 74.0695°
perigee height: 740 km
apogee height: 761 km
right ascension of ascending node: 284.4137°
argument of perigee: 72.0471°
revolutions per day: 14.42399928
mean anomaly at epoch: 288.2302°

The dashed part of the orbit path shows where the satellite is in the earth's shadow,  

DLR